STARLINK-3733, 52137

Orbit data source: Space-Track

STARLINK-3733, 52137 is a payload satellite owned by SpaceX/Seattle (US) in LEO that was launched on Sat, 19 Mar 2022 UTC via an FALCON 9 launch vehicle from the Air Force Eastern Test Range (AFETR). Payload-class satellites include a variety of spacecraft equipped with specific instruments for various scientific and technological missions. These include communications satellites like Starlink; space stations such as the ISS; scientific satellites like the Hubble; Earth observation satellites from companies like Planet Labs, Umbra, and HawkEye 360; GPS; miniature CubeSats for education and research; and military/defense satellites.

Loading next visibility...
Identifier
52137, 2022-029BB
Orbit
LEO
Country
Flag of USUS
Related business
Manufacturer
SpaceX/Seattle
Mission
Operational Commercial Communications
Bus & Motor
STARLINK, Unknown motor
Mass
297 kg wet, ~275 kg dry
Launch date (UTC)
2022-03-19 (4 years ago)
Launch vehicle
FALCON 9
Launch site
Air Force Eastern Test Range (AFETR)
Object type
Payload
Rocket body
Debris
Shape & HBR
Box + 1 Pan, 10.1 m
Radar Cross Section
13.562 m², Large (>1 m²)

Expand to show TLE details & history
Last TLE update: 2 days ago

TLE from 2 days ago
0 STARLINK-3733
1 52137U 22029BB  26171.45763328  .00000552  00000-0  52776-4 0  9991
2 52137  53.1604 327.6596 0001152  93.1946 266.9177 15.08831950236456
Epoch: 2026-06-20T10:58Z
TLE epoch observation values (Epoch: 2026-06-20T10:58:59.515Z)
Latitude
-0.00004°
Longitude
-105.76038°
Altitude
540.702 km
Speed
7.593 km/s
True Right ascension
21h 50m 38s
True Declination
0° 00' 00"
Sunlit
Object was in full shadow at epoch
Visualization orbit readout
Latitude
Unknown
Longitude
Unknown
Altitude
Unknown
Speed
Unknown
Apparent Right ascension
Unknown
Apparent Declination
Unknown
Sunlit
N/A
Visualization observer readout
Local Sidereal Time
23:08:46
Azimuth
Unknown
Elevation
Unknown
Doppler factor
Unknown
Orbital elements
Apogee altitude
540.819 km
Perigee altitude
539.225 km
Semi-major axis
6,918.159 km
Eccentricity
0.00012
Inclination
53.1604°
RAAN
327.6596°
Arg. of periapsis
93.1946°
True anomaly
266.90452°
Mean anomaly
266.9177°
Eccentric anomaly
266.91111°
Mean motion
3.77188 °/min
Orbital period
95.44 mins
BSTAR
0.000052776
Loading maneuver chart data...
Computing Atmospheric mass density...

Documentation

Showing up to 5 results
|